Location: Titusville
(28.6120°N, 80.8080°W)
Time: 23:56:14
(UTC-04:00)

OTV 5 (USA 277) - Visible Passes

Search period start: 16 October 2017 00:00
Search period end: 26 October 2017 00:00
Orbit: 404 x 417 km, 43.0° (Epoch: 07 September)

Date Brightness Start Highest point End Pass type
(mag) Time Alt. Az. Time Alt. Az. Time Alt. Az.
19 Oct ? 20:13:22 10° NNW 20:14:27 13° N 20:14:27 13° N visible
20 Oct ? 19:22:59 10° N 19:23:59 11° NNE 19:24:58 10° NNE visible
20 Oct ? 20:58:38 10° NW 20:58:39 10° NW 20:58:39 10° NW visible
21 Oct ? 20:07:46 10° NNW 20:10:11 26° N 20:10:11 26° N visible
22 Oct ? 19:17:00 10° NNW 19:19:33 19° NNE 19:21:50 11° ENE visible
22 Oct ? 20:53:44 10° WNW 20:54:37 17° WNW 20:54:37 17° WNW visible
23 Oct ? 20:02:37 10° NW 20:06:00 81° NE 20:06:27 63° ESE visible
24 Oct ? 19:11:39 10° NW 19:14:54 45° NNE 19:18:09 10° ESE visible
24 Oct ? 20:49:46 10° W 20:51:16 16° WSW 20:51:16 16° WSW visible
25 Oct ? 19:58:04 10° WNW 20:01:03 29° SW 20:03:33 13° SSE visible
